{"data":{"norad_id":54695,"epoch":"2026-09-21T22:22:25.746816Z","epoch_age_seconds":38563,"freshness":"FRESH","line1":"1 54695U 22167P   26264.93224244  .00007507  00000+0  20978-3 0  9994","line2":"2 54695  97.6951  78.7638 0007081 126.1195 234.0705 15.36985239210249","mean_motion":15.36985239,"eccentricity":0.0007081,"inclination_deg":97.6951,"raan_deg":78.7638,"arg_perigee_deg":126.1195,"mean_anomaly_deg":234.0705,"bstar":0.00020978,"rev_number":21024,"period_min":93.689904330955,"perigee_km":450.19157180457,"apogee_km":459.86870310463,"semimajor_km":6833.1671374546,"source":"CELESTRAK","updated_at":"2026-09-22T09:00:25.187293Z"}}